Location: Unspecified
(0.0000°N, 0.0000°E)
Time: 00:10:02
(UTC+00:00)

deb Explorer IX - Pass Details

Date: 17 December 2018
Orbit: 538 x 1115 km, 38.8° (Epoch: 17 January)

Event Time Altitude Azimuth Distance (km) Brightness Sun altitude
Rises 00:40:27 0° 335° (NNW) 2,925 - -64.3°
Reaches altitude 10° 00:43:04 10° 351° (N) 2,105 - -64.0°
Maximum altitude 00:46:58 23° 43° (NE) 1,530 - -63.6°
Drops below altitude 10° 00:51:23 10° 95° (E) 2,415 - -63.0°
Sets 00:54:36 0° 108° (ESE) 3,470 - -62.6°
